Regional Weather Roundup
Issued by NWS Portland, ME

Home | Current Version | Previous Version | Text Only | Print | Product List | Glossary On
Versions: 1 2 3 4 5 6 7 8 9 10 11 12 13 14 15 16 17 18 19 20 21 22 23 24 25 26 27 28 29 30 31 32 33 34 35 36 37 38 39 40 41 42 43 44 45 46 47 48 49 50
000
ASUS41 KGYX 250110
RWRGYX
WEATHER ROUNDUP FOR MAINE AND NEW HAMPSHIRE
NATIONAL WEATHER SERVICE GRAY ME
900 PM EDT SUN MAY 24 2015

MEZ002-005-006-010-012-015-018-020-021-024-026-027-029-250200-
MAINE

CITY           SKY/WX    TMP DP  RH WIND       PRES   REMARKS
PORTLAND       PTCLDY    74  40  29 SW8       30.10R
BAR HARBOR     PTCLDY    57  46  67 SW10      30.06R
WISCASSET      CLEAR     69  43  38 SW3       30.10R
ROCKLAND       CLEAR     57  43  58 SW6       30.07R
FRYEBURG       PTCLDY    67  41  38 SW5       30.10R
LEWISTONAUBURN CLEAR     66  39  37 S5        30.09R
AUGUSTA        PTCLDY    73  37  27 W8        30.08R
WATERVILLE       N/A    N/A N/A N/A MISG        N/A
BANGOR         MOCLDY    66  47  50 CALM      30.04R
GREENVILLE       N/A     57  50  77 CALM      30.06R
MILLINOCKET    PTCLDY    61  48  62 VRB3      30.03R
HOULTON        CLEAR     61  44  53 SW3       29.99R
PRESQUE ISLE   CLEAR     64  39  39 W3        29.98R
FRENCHVILLE    CLEAR     61  28  28 CALM      29.95R
CARIBOU        CLEAR     62  42  47 CALM      29.96R
$$

NHZ002-005-008-009-011-012-014-250200-
NEW HAMPSHIRE

CITY           SKY/WX    TMP DP  RH WIND       PRES   REMARKS
PORTSMOUTH     CLOUDY    72  38  29 W6        30.12R
ROCHESTER      PTCLDY    71  38  29 VRB3      30.13R
NASHUA         MOCLDY    72  41  32 SW5       30.17R
MANCHESTER     MOCLDY    73  37  27 S3        30.14R
CONCORD        MOCLDY    71  37  28 SW5       30.15R
LACONIA        PTCLDY    70  37  30 SW10      30.11R
PLYMOUTH       FAIR      69  46  44 SW3       30.12R
BERLIN         PTCLDY    62  42  47 CALM      30.10R
WHITEFIELD     MOCLDY    63  41  44 SW5       30.11R
JAFFREY        MOCLDY    68  41  37 SW3       30.21R
KEENE          MOCLDY   N/A N/A N/A S3        30.19R
LEBANON        MOCLDY    67  40  37 S10       30.14R
MT WASHINGTON  MOCLDY    45  32  61 W47G55      N/A
$$

VTZ005-007-008-250200-
VERMONT

CITY           SKY/WX    TMP DP  RH WIND       PRES   REMARKS
ST JOHNSBURY     N/A     70  39  32 MISG      30.09R
MONTPELIER     MOCLDY    70  33  25 SW8       30.17R
BURLINGTON     MOCLDY    72  35  25 SW7       30.11R
$$

MAZ007-012-024-CTZ003-RIZ002-NYZ038-NYZ072-250200-
SOUTHERN NEW ENGLAND AND NY

CITY           SKY/WX    TMP DP  RH WIND       PRES   REMARKS
BOSTON         CLOUDY    70  46  42 SW20      30.19R
WORCESTER      MOCLDY    67  44  43 SW10      30.23R
NANTUCKET      MOCLDY    57  47  69 SW17      30.27R
PROVIDENCE     MOCLDY    65  48  54 SW13      30.24R
HARTFORD       CLOUDY    70  49  47 S13       30.21R
ALBANY         CLOUDY    67  46  47 CALM      30.19R
NEW YORK CITY  MOCLDY    67  51  56 S9        30.24R
$$

ANZ081-ANZ082-ANZ150-NHZ014-MEZ023>029-250200-
COASTAL MARINE OBSERVATIONS

STATION/POSITION TIME  TEMP    WIND        PRES    WAVE
                       AIR SEA DIR/SP/G            HT/PER
                 (UTC) (F)     (DEG/KT/KT) (MB)    (FT/S)
MOUNT DESERT ROC 0100   50     210/ 21/ 22   N/A
MATINICUS ROCK   0000   52     220/ 22/ 24   N/A
ISLE OF SHOALS   0000   78     260/ 17/ 18   N/A
JEFFREYS LEDGE   0003      49                N/A     3/ 5
CASHES LEDGE BUO 0050   54 48                N/A     4/ 6
GEORGES BANK BUO 0050   52 48  230/ 12/ 14   N/A     4/ 5
$$

.............KEY..............
   WCI - WIND CHILL
   TC  - TEMPERATURE IN CELSIUS
   VSB - VISIBILITY IN MILES
   HX  - HEAT INDEX
   FAIR- INDICATES FEW OR NO CLOUDS BELOW 12,000 FT, WITH NO
         SIGNIFICANT WEATHER AND/OR OBSTRUCTIONS TO VISIBILITY.




USA.gov is the U.S. government's official web portal to all federal, state and local government web resources and services.